When you browse on this site, cookies collect data to enhance your experience and personalize the content and advertising you see.
Visit our Privacy Policy to learn more. By continuing to use the site, you agree to this use of cookies and data.
  • In Hungary
  • List of Countries
  • For 7 days
  • Water Temperature
  • Satellite Maps
  • Weather Map
  • News
  • Weather Widgets
  • user-avatar
    Login

    Hourly Weather Lebedin

    Today, 17 November, Saturday

    Time Temperature Precipitation Wind Pressure Humidity
    00:00 -4°C° 0 mm 5 mps 767 mmHg 32%
    01:00 -4°C° 0 mm 5 mps 767 mmHg 33%
    02:00 -3°C° 0 mm 4 mps 767 mmHg 32%
    03:00 -3°C° 0 mm 4 mps 767 mmHg 33%
    04:00 -4°C° 0 mm 5 mps 767 mmHg 33%
    05:00 -4°C° 0 mm 5 mps 767 mmHg 33%
    06:00 -4°C° 0 mm 5 mps 767 mmHg 33%
    07:00 -4°C° 0 mm 5 mps 767 mmHg 33%
    08:00 -4°C° 0 mm 5 mps 767 mmHg 31%
    09:00 -2°C° 0 mm 5 mps 767 mmHg 30%
    10:00 -1°C° 0 mm 5 mps 767 mmHg 29%
    11:00 0°C° 0 mm 5 mps 767 mmHg 27%
    12:00 0°C° 0 mm 4 mps 767 mmHg 28%
    13:00 +1°C° 0 mm 4 mps 766 mmHg 28%
    14:00 +1°C° 0 mm 4 mps 766 mmHg 29%
    15:00 0°C° 0 mm 4 mps 766 mmHg 32%
    16:00 -1°C° 0 mm 3 mps 765 mmHg 35%
    17:00 -2°C° 0 mm 3 mps 765 mmHg 38%
    18:00 -2°C° 0 mm 2 mps 765 mmHg 39%
    19:00 -2°C° 0 mm 2 mps 764 mmHg 39%
    20:00 -3°C° 0 mm 2 mps 764 mmHg 39%
    21:00 -1°C° 0 mm 1 mps 764 mmHg 40%
    22:00 -1°C° 0 mm 1 mps 764 mmHg 40%
    23:00 -1°C° 0 mm 1 mps 763 mmHg 40%

    Tomorrow, 18 November, Sunday

    Time Temperature Precipitation Wind Pressure Humidity
    00:00 -1°C° 0 mm 1 mps 763 mmHg 40%
    01:00 -1°C° 0 mm 1 mps 762 mmHg 40%
    02:00 -1°C° 0 mm 1 mps 762 mmHg 40%
    03:00 -1°C° 0 mm 1 mps 761 mmHg 40%
    04:00 -2°C° 0 mm 0 mps 761 mmHg 40%
    05:00 -3°C° 0 mm 0 mps 760 mmHg 40%
    06:00 -1°C° 0 mm 1 mps 760 mmHg 39%
    07:00 -1°C° 0 mm 1 mps 759 mmHg 39%
    08:00 -1°C° 0 mm 1 mps 759 mmHg 38%
    09:00 0°C° 0 mm 1 mps 759 mmHg 36%
    10:00 +1°C° 0 mm 1 mps 759 mmHg 33%
    11:00 +2°C° 0 mm 1 mps 758 mmHg 30%
    12:00 +3°C° 0 mm 1 mps 758 mmHg 30%
    13:00 +3°C° 0 mm 1 mps 758 mmHg 31%
    14:00 +3°C° 0 mm 1 mps 757 mmHg 31%
    15:00 +2°C° 0 mm 1 mps 757 mmHg 35%
    16:00 +1°C° 0 mm 1 mps 757 mmHg 38%
    17:00 -2°C° 0 mm 0 mps 757 mmHg 42%
    18:00 -2°C° 0 mm 0 mps 757 mmHg 42%
    19:00 -2°C° 0 mm 0 mps 757 mmHg 43%
    20:00 -2°C° 0 mm 0 mps 757 mmHg 43%
    21:00 -2°C° 0 mm 0 mps 757 mmHg 43%
    22:00 -2°C° 0 mm 0 mps 757 mmHg 43%
    23:00 -2°C° 0 mm 0 mps 757 mmHg 43%

    Day after tomorrow, 19 November, Monday

    Time Temperature Precipitation Wind Pressure Humidity
    00:00 -1°C° 0 mm 1 mps 757 mmHg 44%
    01:00 -1°C° 0 mm 1 mps 758 mmHg 44%
    02:00 -2°C° 0 mm 1 mps 758 mmHg 44%
    03:00 -2°C° 0 mm 1 mps 758 mmHg 45%
    04:00 -2°C° 0 mm 1 mps 758 mmHg 45%
    05:00 -4°C° 0 mm 2 mps 758 mmHg 45%
    06:00 -4°C° 0 mm 2 mps 758 mmHg 45%
    07:00 -4°C° 0 mm 2 mps 758 mmHg 45%
    08:00 -3°C° 0 mm 2 mps 758 mmHg 45%
    09:00 -2°C° 0 mm 2 mps 758 mmHg 42%
    10:00 -1°C° 0 mm 3 mps 758 mmHg 38%
    11:00 0°C° 0 mm 3 mps 759 mmHg 35%
    12:00 +1°C° 0 mm 3 mps 759 mmHg 36%
    13:00 +1°C° 0 mm 3 mps 758 mmHg 36%
    14:00 +1°C° 0 mm 3 mps 758 mmHg 36%
    15:00 0°C° 0 mm 3 mps 758 mmHg 39%
    16:00 0°C° 0 mm 3 mps 758 mmHg 42%
    17:00 -1°C° 0 mm 3 mps 758 mmHg 44%
    18:00 -2°C° 0 mm 4 mps 758 mmHg 45%
    19:00 -2°C° 0 mm 4 mps 758 mmHg 45%
    20:00 -2°C° 0 mm 4 mps 758 mmHg 45%
    21:00 -2°C° 0 mm 4 mps 758 mmHg 47%
    22:00 -2°C° 0 mm 4 mps 758 mmHg 50%
    23:00 -2°C° 0 mm 5 mps 758 mmHg 52%

    20 November, Tuesday

    Time Temperature Precipitation Wind Pressure Humidity
    00:00 -4°C° 0.1 mm 5 mps 758 mmHg 58%
    01:00 -4°C° 0.1 mm 5 mps 758 mmHg 64%
    02:00 -4°C° 0.1 mm 5 mps 758 mmHg 71%
    03:00 -4°C° 0.1 mm 5 mps 757 mmHg 73%
    04:00 -4°C° 0.1 mm 5 mps 757 mmHg 75%
    05:00 -4°C° 0.1 mm 5 mps 757 mmHg 77%
    06:00 -4°C° 0.1 mm 5 mps 757 mmHg 77%
    07:00 -4°C° 0.1 mm 5 mps 757 mmHg 77%
    08:00 -4°C° 0.1 mm 5 mps 757 mmHg 77%
    09:00 -2°C° 0 mm 5 mps 757 mmHg 76%
    10:00 -2°C° 0 mm 5 mps 757 mmHg 75%
    11:00 -1°C° 0 mm 5 mps 757 mmHg 73%
    12:00 -1°C° 0 mm 5 mps 757 mmHg 73%
    13:00 -1°C° 0 mm 5 mps 757 mmHg 73%
    14:00 -1°C° 0 mm 4 mps 757 mmHg 73%
    15:00 -2°C° 0 mm 4 mps 757 mmHg 74%
    16:00 -1°C° 0 mm 3 mps 757 mmHg 76%
    17:00 -2°C° 0 mm 3 mps 757 mmHg 77%
    18:00 -2°C° 0 mm 3 mps 758 mmHg 77%
    19:00 -4°C° 0 mm 3 mps 758 mmHg 76%
    20:00 -4°C° 0 mm 3 mps 758 mmHg 76%
    21:00 -4°C° 0 mm 3 mps 758 mmHg 76%
    22:00 -3°C° 0 mm 2 mps 758 mmHg 76%
    23:00 -4°C° 0 mm 2 mps 758 mmHg 77%

    21 November, Wednesday

    Time Temperature Precipitation Wind Pressure Humidity
    00:00 -4°C° 0 mm 2 mps 758 mmHg 78%
    01:00 -4°C° 0 mm 2 mps 758 mmHg 78%
    02:00 -4°C° 0 mm 2 mps 758 mmHg 79%
    03:00 -4°C° 0 mm 2 mps 758 mmHg 81%
    04:00 -4°C° 0 mm 2 mps 758 mmHg 83%
    05:00 -4°C° 0 mm 2 mps 758 mmHg 85%
    06:00 -4°C° 0 mm 2 mps 758 mmHg 86%
    07:00 -4°C° 0 mm 2 mps 758 mmHg 87%
    08:00 -5°C° 0 mm 3 mps 758 mmHg 88%
    09:00 -4°C° 0 mm 3 mps 758 mmHg 83%
    10:00 -2°C° 0 mm 3 mps 758 mmHg 79%
    11:00 -1°C° 0 mm 3 mps 758 mmHg 74%
    12:00 -1°C° 0 mm 3 mps 757 mmHg 73%
    13:00 0°C° 0 mm 3 mps 757 mmHg 72%
    14:00 0°C° 0 mm 3 mps 757 mmHg 71%
    15:00 -1°C° 0 mm 3 mps 757 mmHg 75%
    16:00 -2°C° 0 mm 3 mps 757 mmHg 80%
    17:00 -4°C° 0 mm 3 mps 757 mmHg 85%
    18:00 -3°C° 0 mm 2 mps 757 mmHg 85%
    19:00 -4°C° 0 mm 2 mps 757 mmHg 86%
    20:00 -4°C° 0 mm 2 mps 757 mmHg 86%
    21:00 -4°C° 0 mm 2 mps 757 mmHg 86%
    22:00 -4°C° 0 mm 2 mps 757 mmHg 86%
    23:00 -4°C° 0 mm 2 mps 757 mmHg 86%

    22 November, Thursday

    Time Temperature Precipitation Wind Pressure Humidity
    00:00 -4°C° 0 mm 2 mps 757 mmHg 87%
    01:00 -4°C° 0 mm 2 mps 757 mmHg 87%
    02:00 -5°C° 0 mm 2 mps 757 mmHg 87%
    03:00 -5°C° 0 mm 2 mps 757 mmHg 88%
    04:00 -5°C° 0 mm 2 mps 757 mmHg 89%
    05:00 -5°C° 0 mm 2 mps 757 mmHg 90%
    06:00 -5°C° 0 mm 2 mps 758 mmHg 90%
    07:00 -5°C° 0 mm 2 mps 758 mmHg 90%
    08:00 -5°C° 0 mm 2 mps 758 mmHg 90%
    09:00 -4°C° 0 mm 2 mps 758 mmHg 83%
    10:00 -4°C° 0 mm 3 mps 758 mmHg 76%
    11:00 -2°C° 0 mm 3 mps 758 mmHg 70%
    12:00 -2°C° 0 mm 3 mps 758 mmHg 68%
    13:00 -2°C° 0 mm 3 mps 758 mmHg 67%
    14:00 -1°C° 0 mm 3 mps 758 mmHg 65%
    15:00 -2°C° 0 mm 3 mps 758 mmHg 70%
    16:00 -4°C° 0 mm 3 mps 758 mmHg 74%
    17:00 -5°C° 0 mm 3 mps 758 mmHg 79%
    18:00 -5°C° 0 mm 3 mps 758 mmHg 81%
    19:00 -5°C° 0 mm 3 mps 759 mmHg 82%
    20:00 -5°C° 0 mm 3 mps 759 mmHg 84%
    21:00 -5°C° 0 mm 3 mps 759 mmHg 86%
    22:00 -6°C° 0 mm 3 mps 759 mmHg 88%
    23:00 -6°C° 0 mm 3 mps 759 mmHg 91%
    Show more